Content
SEND FEEDBACK

Daily
Averages
Monthly
Summary
United States of America

BIG WATER, UTAH


Home > North America > United States > Utah
Elevation: 4166 feet     Latitude: 37 05N     Longitude: 111 40W

WEATHER
 
SELECT A DAY
Number of Records: 197,772;   Date Range: 1/1/95 - 11/26/14
 
SHARE

PRINT THIS DATA

[ ← Previous Day ]
WEATHER ALMANAC - MARCH 14, 2013
[ Next Day → ]
[ °C ]   °F
Weather ElementAverageHighLow
Temperature58.3 °F72 °F (3:53 pm)45 °F (4:53 am)
Dewpoint26.2 °F28.9 °F (9:53 am)21 °F (4:53 pm)
Humidity31.4 %48 % (4:53 am)15 % (4:53 pm)
Barometer30.19 in30.29 in (8:53 am)30.11 in (4:53 pm)
Wind Speed2.6 mph5.8 mph (9:53 am)
Weather ElementAverage
Visibility10 mi
Wind DirectionE (94.3 °)

Weather ElementTotal
Precipitation---
Heating Degree Days6.5 (Base 65)
Growing Degree Days8.5 (Base 50)
Averaged from 23 records on March 14, 2013
WEATHER CONDITIONS BREAKOUT
WIND DIRECTION BREAKOUT
WEATHER BY HOUR - MARCH 14, 2013
[ °C ]   °F
Local TimeTemperatureDewpointHumidityBarometerVisibilityWind DirectionWind SpeedGust SpeedPrecipitationEventsConditions
1:53 AM51.1 °F28.0 °F41 %30.22 in10.0 miWest (260°)3.5 mphClear
2:53 AM50.0 °F25.0 °F38 %30.20 in10.0 miWest (260°)3.5 mphClear
3:53 AM46.9 °F27.0 °F46 %30.21 in10.0 miCalmClear
4:53 AM45.0 °F26.1 °F48 %30.23 in10.0 miWSW (240°)3.5 mphClear
5:53 AM46.0 °F26.1 °F46 %30.25 in10.0 miCalmClear
6:53 AM46.0 °F27.0 °F47 %30.26 in10.0 miCalmClear
7:53 AM51.1 °F27.0 °F39 %30.28 in10.0 miCalmClear
8:53 AM52.0 °F26.1 °F37 %30.29 in10.0 miCalmClear
9:53 AM55.0 °F28.9 °F37 %30.28 in10.0 miNorth (360°)5.8 mphClear
10:53 AM57.9 °F27.0 °F31 %30.28 in10.0 miVariable4.6 mphClear
11:53 AM62.1 °F28.0 °F28 %30.24 in10.0 miNorth (10°)3.5 mphClear
12:53 PM64.9 °F28.0 °F25 %30.22 in10.0 miNNE (30°)4.6 mphClear
1:53 PM66.9 °F25.0 °F21 %30.17 in10.0 miNE (40°)5.8 mphClear
2:53 PM70.0 °F24.1 °F18 %30.14 in10.0 miNE (40°)5.8 mphClear
3:53 PM72.0 °F24.1 °F17 %30.12 in10.0 miCalmClear
4:53 PM72.0 °F21.0 °F15 %30.11 in10.0 miCalmClear
5:53 PM70.0 °F24.1 °F18 %30.11 in10.0 miENE (70°)3.5 mphClear
6:53 PM64.9 °F26.1 °F23 %30.12 in10.0 miSSE (150°)3.5 mphClear
7:53 PM63.0 °F26.1 °F25 %30.11 in10.0 miSSE (160°)4.6 mphClear
8:53 PM61.0 °F26.1 °F26 %30.12 in10.0 miCalmClear
9:53 PM60.1 °F28.0 °F30 %30.11 in10.0 miCalmClear
10:53 PM57.9 °F26.1 °F30 %30.11 in10.0 miWNW (300°)3.5 mphClear
11:53 PM55.4 °F28.4 °F36 %30.20 in9.0 miWSW (250°)3.5 mphClear
Hourly data recorded from KPGA, located miles away from Big Water, Utah







STORIES FROM OUR PARTNERS